Regional Weather Roundup
Issued by NWS

Home | Current Version | Previous Version | Text Only | Print | Product List | Glossary On
Versions: 1 2 3 4 5 6 7 8 9 10 11 12 13 14 15 16 17 18 19 20 21 22 23 24 25 26 27 28 29 30 31 32 33 34 35 36 37 38 39 40 41 42 43 44 45 46 47 48 49 50
000
ASUS43 KDTX 210110
RWRMI
MICHIGAN HOURLY REGIONAL WEATHER ROUNDUP
NATIONAL WEATHER SERVICE DETROIT/PONTIAC MI
900 PM EDT SAT SEP 20 2014

NOTE: "FAIR" INDICATES FEW OR NO CLOUDS BELOW 12,000 FEET WITH NO
SIGNIFICANT WEATHER AND/OR OBSTRUCTION TO VISIBILITY.

MIZ047>049-052>055-059>063-066>070-074>076-081>083-210200-
SOUTHEAST LOWER MICHIGAN

CITY           SKY/WX    TMP DP  RH WIND       PRES   REMARKS
ADRIAN         LGT RAIN  63  62  97 W7        29.85S
ALMA           MOCLDY    65  64  94 S7        29.77R FOG
ANN ARBOR      LGT RAIN  64  60  87 SW8       29.82F
BAD AXE        HVY RAIN  66  66 100 SW7       29.74S
DETROIT CITY   RAIN      68  63  84 SW15      29.83R
DETROIT        LGT RAIN  65  62  90 S8        29.83F
FLINT          CLOUDY    69  65  86 SW10      29.78R
GROSSE ILE     RAIN      64  61  88 S3        29.82F
HILLSDALE      CLOUDY    64  64 100 SW8       29.85R
HOWELL         CLOUDY    64  62  94 S8        29.80S

CITY           SKY/WX    TMP DP  RH WIND       PRES   REMARKS
JACKSON        CLOUDY    63  61  93 SW10      29.82S
LAMBERTVILLE   LGT RAIN  64  61  88 SW7       29.85F
LANSING        CLOUDY    67  64  90 S13       29.79R
LAPEER         NOT AVBL
MASON          CLOUDY    64  62  94 S3        29.81R
MONROE         LGT RAIN  64  61  88 S5        29.83F
MT. CLEMENS    RAIN      66  66 100 SW18      29.79S
PONTIAC        CLOUDY    64  61  90 SW13G18   29.80S
PORT HOPE        N/A     67  64  90 SW9       29.70R
PORT HURON     HVY RAIN  66  66 100 SW6       29.79S
TRI CITIES     CLOUDY    68  65  90 SW13      29.75R
YPSILANTI      LGT RAIN  68  60  75 SW10      29.83F
$$
MIZ043>046-050>051-056>058-064>065-071>073-077>080-210200-
SOUTHWEST LOWER MICHIGAN

CITY           SKY/WX    TMP DP  RH WIND       PRES   REMARKS
BATTLE CREEK   MOCLDY    66  63  90 S10       29.82R
BENTON HARBOR  CLEAR     66  64  93 S7        29.80R
BIG RAPIDS     CLOUDY    65  65 100 SW6       29.73R
COLDWATER      CLOUDY    64  62  94 S5        29.84R
HOLLAND        CLEAR     66  63  90 S9        29.79R
GRAND RAPIDS   CLEAR     66  66 100 SW9       29.78R
KALAMAZOO      PTCLDY    65  62  90 S10       29.82R
MARSHALL       CLOUDY    63  60  92 S7        29.82R
MUSKEGON       PTCLDY    65  60  84 SW12      29.75S
$$
MIZ016>042-210200-
NORTHERN LOWER MICHIGAN

CITY           SKY/WX    TMP DP  RH WIND       PRES   REMARKS
ALPENA         CLOUDY    65  63  93 SW8       29.65R
BEAVER ISLAND  CLEAR     62  58  87 NW6       29.67S
BELLAIRE       CLOUDY    66  63  90 W5        29.66S
CADILLAC       CLOUDY    64  64  99 SW8       29.71R
CHARLEVOIX     MOCLDY    63  62  97 W8        29.70R
FRANKFORT      CLOUDY    66  61  85 W6        29.68R
GAYLORD        MOCLDY    64  62  93 W8        29.68R
GRAYLING       CLOUDY    65  64  99 SW7       29.69R
HARBOR SPRINGS CLOUDY    63  61  94 CALM      29.67R FOG
HOUGHTON LAKE  PTCLDY    63  62  97 SW9       29.71R
MANISTEE       CLEAR     64  61  88 SW3       29.70R
OSCODA         CLOUDY    65  64  96 SW12      29.65F
PELLSTON       MOCLDY    63  62  97 W6        29.67R
TRAVERSE CITY  CLOUDY    67  63  87 W9        29.66R
$$
MIZ007>008-015-210200-
EASTERN UPPER MICHIGAN

CITY           SKY/WX    TMP DP  RH WIND       PRES   REMARKS
KINROSS        MOCLDY    59  57  94 NW12      29.64F
MACKINAC ISLAN PTCLDY    61  59  93 W9        29.65R
NEWBERRY       CLOUDY    55  54  94 NW3       29.66F
S. S. MARIE    CLOUDY    56  53  90 W9        29.64F
$$
MIZ004>006-011>014-085-210200-
CENTRAL UPPER MICHIGAN

CITY           SKY/WX    TMP DP  RH WIND       PRES   REMARKS
MANISTIQUE     PTCLDY    57  54  89 N9        29.67S
ESCANABA       CLEAR     64  55  72 N3        29.67R
MENOMINEE      PTCLDY    63  57  82 CALM      29.66R
SAWYER-GWINN   CLEAR     55  52  88 N10       29.72R
$$
MIZ001>003-009>011-084-210200-
WESTERN UPPER MICHIGAN

CITY           SKY/WX    TMP DP  RH WIND       PRES   REMARKS
IRON MOUNTAIN  PTCLDY    61  53  75 N5        29.67F
HOUGHTON       CLOUDY    54  51  90 N3        29.71R
COPPER HARBOR    N/A     53  50  89 N5        29.71R
IRONWOOD       PTCLDY    52  52 100 E5        29.67F
$$

ABBREVIATIONS USED IN REMARKS
   TC - TEMPERATURE IN CELSIUS
  WCI - WIND CHILL INDEX
   HX - HEAT INDEX
  VSB - VISIBILITY




USA.gov is the U.S. government's official web portal to all federal, state and local government web resources and services.